Location: Fluertsh�userhof
(48.7537°N, 10.3850°E)
Time: 08:55:07
(UTC+00:00)

ATLAS 2AS CENTAUR R/B - Pass Details

Date: 18 September 2020
Orbit: 939 x 1273 km, 63.7° (Epoch: 26 October)

Event Time Altitude Azimuth Distance (km) Brightness Sun altitude
Exits shadow 22:59:05 15° 275° (W) 2,910 5.0 -39.8°
Maximum altitude 23:05:03 36° 335° (NNW) 1,890 4.2 -39.8°
Drops below altitude 10° 23:12:04 10° 40° (NE) 3,173 5.6 -39.9°
Sets 23:15:05 0° 49° (NE) 4,097 6.2 -39.9°
